This demonstration page uses our WeatherBlox Daily Observations layout. Learn more.

Left ArrowRight Arrow

Hourly Observations for November 9, 2018

Temp ( °F °C ) Dew Point ( °F °C ) Humidity (%) Winds ( mph kmh ) Pressure ( in mb ) Visibility ( mi km ) Precip ( " mm )
12:57 am 00:57 Clear 19 -7.2 17 -8.3 92 92 W 7 11 30.35 1028 10 16 0.00 0.00
1:57 am 01:57 Clear 16 -8.9 13 -10.6 88 88 WNW 7 11 30.36 1028 10 16 0.00 0.00
2:57 am 02:57 Cloudy 17 -8.3 16 -8.9 95 95 W 5 7 30.35 1028 10 16 0.00 0.00
3:57 am 03:57 Mostly Cloudy 20 -6.7 18 -7.8 92 92 WNW 6 9 30.37 1028 9 14 0.00 0.03
4:57 am 04:57 Cloudy with Light Snow 23 -5 21 -6.1 92 92 NW 12 19 30.38 1029 10 16 0.00 0.03
5:57 am 05:57 Windy with Snow Likely 24 -4.4 18 -7.8 77 77 NNW 21 33 30.42 1030 10 16 0.00 0.03
6:57 am 06:57 Clear 20 -6.7 14 -10 78 78 NNW 17 28 30.46 1032 10 16 0.00 0.03
7:45 am 07:45 Mostly Cloudy with Light Snow 19 -7 12 -11 73 73 NNW 17 28 30.56 1035 9 14 0.00 0.00
7:57 am 07:57 Cloudy with Light Snow 19 -7.2 13 -10.6 77 77 NW 18 30 30.50 1033 9 14 0.00 0.03
8:43 am 08:43 Partly Cloudy with Isolated Snow Showers 18 -8 10 -12 73 73 N 26 43 30.62 1037 10 16 0.00 0.00
8:57 am 08:57 Partly Cloudy with Isolated Snow Showers 18 -7.8 10 -12.2 71 71 NNW 22 35 30.56 1035 9 14 0.00 0.03
9:23 am 09:23 Mostly Cloudy with Light Snow 19 -7 10 -12 68 68 NW 18 30 30.65 1038 9 14 0.00 0.00
9:54 am 09:54 Mostly Sunny 19 -7 9 -13 63 63 NNW 24 39 30.65 1038 10 16 0.00 0.03
9:57 am 09:57 Mostly Sunny 19 -7.2 8 -13.3 62 62 N 21 33 30.59 1036 10 16 0.00 0.03
10:57 am 10:57 Sunny 21 -6.1 7 -13.9 54 54 N 17 28 30.60 1036 10 16 0.00 0.00
11:57 am 11:57 Sunny 20 -6.7 5 -15 52 52 NNW 24 39 30.60 1036 10 16 0.00 0.00
12:57 pm 12:57 Sunny 22 -5.6 7 -13.9 52 52 NNW 17 28 30.60 1036 10 16 0.00 0.00
1:57 pm 13:57 Sunny 23 -5 7 -13.9 50 50 NNW 14 22 30.59 1036 10 16 0.00 0.00
2:57 pm 14:57 Sunny 22 -5.6 7 -13.9 52 52 N 15 24 30.56 1035 10 16 0.00 0.00
3:57 pm 15:57 Sunny 22 -5.6 6 -14.4 50 50 N 12 19 30.56 1035 10 16 0.00 0.00
4:57 pm 16:57 Sunny 19 -7.2 6 -14.4 57 57 N 9 15 30.55 1035 10 16 0.00 0.00
5:57 pm 17:57 Clear 13 -10.6 4 -15.6 67 67 Calm 30.55 1035 10 16 0.00 0.00
6:57 pm 18:57 Clear 10 -12.2 2 -16.7 69 69 Calm 30.55 1035 10 16 0.00 0.00
7:57 pm 19:57 Clear 10 -12.2 3 -16.1 73 73 Calm 30.54 1034 10 16 0.00 0.00
8:57 pm 20:57 Clear 5 -15 1 -17.2 83 83 S 7 11 30.54 1034 10 16 0.00 0.00
9:57 pm 21:57 Clear 7 -13.9 3 -16.1 84 84 S 6 9 30.53 1034 10 16 0.00 0.00
10:57 pm 22:57 Clear 6 -14.4 3 -16.1 87 87 S 7 11 30.48 1032 10 16 0.00 0.00
11:57 pm 23:57 Clear 8 -13.3 4 -15.6 83 83 S 7 11 30.47 1032 10 16 0.00 0.00

Powered by AerisWeather